Time,TemperatureF,DewpointF,PressureIn,WindDirection,WindDirectionDegrees,WindSpeedMPH,WindSpeedGustMPH,Humidity,HourlyPrecipIn,Conditions,Clouds,dailyrainin,SoftwareType,DateUTC
2013-01-17 00:00:00,34.0,29.1,29.84,North,360,24.0,39.0,82,0.00,,,-99.99,Weather View 32 v60,2013-01-17 05:00:00,
2013-01-17 00:05:00,34.0,28.8,29.85,North,360,24.0,39.0,81,0.00,,,-99.99,Weather View 32 v60,2013-01-17 05:05:00,
2013-01-17 00:10:00,34.0,29.7,29.85,North,360,16.0,39.0,84,0.00,,,-99.99,Weather View 32 v60,2013-01-17 05:10:00,
2013-01-17 00:15:00,34.0,30.0,29.85,North,360,16.0,39.0,85,0.00,,,-99.99,Weather View 32 v60,2013-01-17 05:15:00,
2013-01-17 00:20:00,34.0,29.7,29.85,NNW,337,24.0,39.0,84,0.00,,,-99.99,Weather View 32 v60,2013-01-17 05:20:00,
2013-01-17 00:25:00,34.0,30.3,29.85,North,360,21.0,39.0,86,0.00,,,-99.99,Weather View 32 v60,2013-01-17 05:25:00,
2013-01-17 00:30:00,34.0,30.3,29.85,North,360,20.0,39.0,86,0.00,,,-99.99,Weather View 32 v60,2013-01-17 05:30:00,
2013-01-17 00:35:00,34.0,30.3,29.85,North,360,13.0,39.0,86,0.00,,,-99.99,Weather View 32 v60,2013-01-17 05:35:00,
2013-01-17 00:40:00,34.0,30.5,29.85,North,360,15.0,38.0,87,0.00,,,-99.99,Weather View 32 v60,2013-01-17 05:40:00,
2013-01-17 00:45:00,34.0,31.4,29.86,North,360,15.0,38.0,90,0.00,,,-99.99,Weather View 32 v60,2013-01-17 05:45:00,
2013-01-17 00:50:00,34.0,28.5,29.86,North,360,21.0,38.0,80,0.00,,,-99.99,Weather View 32 v60,2013-01-17 05:50:00,
2013-01-17 00:55:00,34.0,28.2,29.86,North,360,11.0,38.0,79,0.00,,,-99.99,Weather View 32 v60,2013-01-17 05:55:00,
2013-01-17 01:00:00,34.0,27.5,29.86,NNW,337,15.0,38.0,77,0.00,,,-99.99,Weather View 32 v60,2013-01-17 06:00:00,
2013-01-17 01:05:00,34.0,28.2,29.87,North,360,9.0,38.0,79,0.00,,,-99.99,Weather View 32 v60,2013-01-17 06:05:00,
2013-01-17 01:10:00,34.0,28.8,29.87,North,360,6.0,38.0,81,0.00,,,-99.99,Weather View 32 v60,2013-01-17 06:10:00,
2013-01-17 01:15:00,34.0,28.8,29.87,North,360,6.0,38.0,81,0.00,,,-99.99,Weather View 32 v60,2013-01-17 06:15:00,
2013-01-17 01:20:00,34.0,28.8,29.87,North,360,15.0,38.0,81,0.00,,,-99.99,Weather View 32 v60,2013-01-17 06:20:00,
2013-01-17 01:25:00,34.0,29.7,29.88,NNW,337,15.0,38.0,84,0.00,,,-99.99,Weather View 32 v60,2013-01-17 06:25:00,
2013-01-17 01:30:00,34.0,25.9,29.88,North,360,14.0,38.0,72,0.00,,,-99.99,Weather View 32 v60,2013-01-17 06:30:00,
2013-01-17 01:35:00,34.0,26.6,29.89,NNW,337,8.0,23.0,74,0.00,,,-99.99,Weather View 32 v60,2013-01-17 06:35:00,
2013-01-17 01:40:00,34.0,27.2,29.89,North,360,10.0,23.0,76,0.00,,,-99.99,Weather View 32 v60,2013-01-17 06:40:00,
2013-01-17 01:45:00,34.0,25.9,29.89,NW,315,12.0,23.0,72,0.00,,,-99.99,Weather View 32 v60,2013-01-17 06:45:00,
2013-01-17 01:50:00,34.0,26.6,29.89,North,360,16.0,23.0,74,0.00,,,-99.99,Weather View 32 v60,2013-01-17 06:50:00,
2013-01-17 01:55:00,34.0,27.9,29.90,NNW,337,20.0,24.0,78,0.00,,,-99.99,Weather View 32 v60,2013-01-17 06:55:00,
2013-01-17 02:00:00,34.0,28.8,29.90,North,360,16.0,24.0,81,0.00,,,-99.99,Weather View 32 v60,2013-01-17 07:00:00,
2013-01-17 02:05:00,34.0,28.8,29.91,NNE,22,10.0,25.0,81,0.00,,,-99.99,Weather View 32 v60,2013-01-17 07:05:00,
2013-01-17 02:10:00,34.0,28.2,29.91,North,360,16.0,25.0,79,0.00,,,-99.99,Weather View 32 v60,2013-01-17 07:10:00,
2013-01-17 02:15:00,33.0,26.6,29.91,NE,45,10.0,25.0,77,0.00,,,-99.99,Weather View 32 v60,2013-01-17 07:15:00,
2013-01-17 02:20:00,33.0,26.6,29.91,East,90,7.0,25.0,77,0.00,,,-99.99,Weather View 32 v60,2013-01-17 07:20:00,
2013-01-17 02:25:00,33.0,26.6,29.90,NE,45,15.0,25.0,77,0.00,,,-99.99,Weather View 32 v60,2013-01-17 07:25:00,
2013-01-17 02:30:00,33.0,26.3,29.90,North,360,18.0,25.0,76,0.00,,,-99.99,Weather View 32 v60,2013-01-17 07:30:00,
2013-01-17 02:35:00,33.0,26.6,29.90,North,360,16.0,25.0,77,0.00,,,-99.99,Weather View 32 v60,2013-01-17 07:35:00,
2013-01-17 02:40:00,33.0,25.6,29.90,NW,315,24.0,26.0,74,0.00,,,-99.99,Weather View 32 v60,2013-01-17 07:40:00,
2013-01-17 02:45:00,33.0,25.9,29.91,NE,45,8.0,28.0,75,0.00,,,-99.99,Weather View 32 v60,2013-01-17 07:45:00,
2013-01-17 02:50:00,33.0,26.3,29.91,North,360,9.0,29.0,76,0.00,,,-99.99,Weather View 32 v60,2013-01-17 07:50:00,
2013-01-17 02:55:00,33.0,26.6,29.91,NNW,337,17.0,29.0,77,0.00,,,-99.99,Weather View 32 v60,2013-01-17 07:55:00,
2013-01-17 03:00:00,33.0,26.3,29.91,NW,315,10.0,29.0,76,0.00,,,-99.99,Weather View 32 v60,2013-01-17 08:00:00,
2013-01-17 03:05:00,33.0,25.0,29.92,NNE,22,18.0,29.0,72,0.00,,,-99.99,Weather View 32 v60,2013-01-17 08:05:00,
2013-01-17 03:10:00,33.0,28.1,29.92,North,360,22.0,29.0,82,0.00,,,-99.99,Weather View 32 v60,2013-01-17 08:10:00,
2013-01-17 03:15:00,32.0,27.4,29.93,North,360,19.0,35.0,83,0.00,,,-99.99,Weather View 32 v60,2013-01-17 08:15:00,
2013-01-17 03:20:00,31.0,26.4,29.93,North,360,14.0,35.0,83,0.00,,,-99.99,Weather View 32 v60,2013-01-17 08:20:00,
2013-01-17 03:25:00,31.0,27.0,29.94,WNW,292,4.0,35.0,85,0.00,,,-99.99,Weather View 32 v60,2013-01-17 08:25:00,
2013-01-17 03:30:00,31.0,26.1,29.94,North,360,10.0,35.0,82,0.00,,,-99.99,Weather View 32 v60,2013-01-17 08:30:00,
2013-01-17 03:35:00,31.0,26.1,29.95,NE,45,11.0,35.0,82,0.00,,,-99.99,Weather View 32 v60,2013-01-17 08:35:00,
2013-01-17 03:40:00,31.0,26.1,29.95,NE,45,8.0,35.0,82,0.00,,,-99.99,Weather View 32 v60,2013-01-17 08:40:00,
2013-01-17 03:45:00,31.0,25.9,29.96,NNE,22,12.0,35.0,81,0.00,,,-99.99,Weather View 32 v60,2013-01-17 08:45:00,
2013-01-17 03:50:00,31.0,25.6,29.96,North,360,11.0,35.0,80,0.00,,,-99.99,Weather View 32 v60,2013-01-17 08:50:00,
2013-01-17 03:55:00,31.0,26.1,29.96,North,360,15.0,35.0,82,0.00,,,-99.99,Weather View 32 v60,2013-01-17 08:55:00,
2013-01-17 04:00:00,31.0,26.1,29.96,NNE,22,13.0,35.0,82,0.00,,,-99.99,Weather View 32 v60,2013-01-17 09:00:00,
2013-01-17 04:05:00,30.0,24.6,29.97,North,360,6.0,35.0,80,0.00,,,-99.99,Weather View 32 v60,2013-01-17 09:05:00,
2013-01-17 04:10:00,30.0,24.6,29.97,North,360,8.0,35.0,80,0.00,,,-99.99,Weather View 32 v60,2013-01-17 09:10:00,
2013-01-17 04:15:00,30.0,24.6,29.98,North,360,15.0,35.0,80,0.00,,,-99.99,Weather View 32 v60,2013-01-17 09:15:00,
2013-01-17 04:20:00,30.0,24.3,29.98,NNE,22,2.0,30.0,79,0.00,,,-99.99,Weather View 32 v60,2013-01-17 09:20:00,
2013-01-17 04:25:00,30.0,24.0,29.98,NNE,22,14.0,30.0,78,0.00,,,-99.99,Weather View 32 v60,2013-01-17 09:25:00,
2013-01-17 04:30:00,30.0,24.0,29.98,NE,45,17.0,30.0,78,0.00,,,-99.99,Weather View 32 v60,2013-01-17 09:30:00,
2013-01-17 04:35:00,30.0,23.7,29.97,NE,45,8.0,30.0,77,0.00,,,-99.99,Weather View 32 v60,2013-01-17 09:35:00,
2013-01-17 04:40:00,30.0,23.7,29.97,NE,45,5.0,30.0,77,0.00,,,-99.99,Weather View 32 v60,2013-01-17 09:40:00,
2013-01-17 04:45:00,30.0,23.4,29.98,NE,45,10.0,30.0,76,0.00,,,-99.99,Weather View 32 v60,2013-01-17 09:45:00,
2013-01-17 04:50:00,30.0,23.7,29.98,NE,45,5.0,25.0,77,0.00,,,-99.99,Weather View 32 v60,2013-01-17 09:50:00,
2013-01-17 05:10:00,29.0,22.7,29.99,NE,45,4.0,24.0,77,0.00,,,-99.99,Weather View 32 v60,2013-01-17 10:10:00,
2013-01-17 05:15:00,29.0,22.1,29.99,NE,45,5.0,24.0,75,0.00,,,-99.99,Weather View 32 v60,2013-01-17 10:15:00,
2013-01-17 05:30:00,29.0,22.4,30.00,NE,45,3.0,24.0,76,0.00,,,-99.99,Weather View 32 v60,2013-01-17 10:30:00,
2013-01-17 05:35:00,29.0,22.1,30.00,NE,45,5.0,16.0,75,0.00,,,-99.99,Weather View 32 v60,2013-01-17 10:35:00,
2013-01-17 05:40:00,29.0,22.1,30.00,NE,45,3.0,13.0,75,0.00,,,-99.99,Weather View 32 v60,2013-01-17 10:40:00,
2013-01-17 05:45:00,29.0,22.4,30.01,NNE,22,3.0,11.0,76,0.00,,,-99.99,Weather View 32 v60,2013-01-17 10:45:00,
2013-01-17 05:50:00,29.0,22.1,30.01,ENE,67,5.0,11.0,75,0.00,,,-99.99,Weather View 32 v60,2013-01-17 10:50:00,
2013-01-17 05:55:00,29.0,22.7,30.01,NE,45,3.0,10.0,77,0.00,,,-99.99,Weather View 32 v60,2013-01-17 10:55:00,
2013-01-17 05:59:00,29.0,22.7,29.99,NE,45,7.0,24.0,77,0.00,,,-99.99,Weather View 32 v60,2013-01-17 10:59:00,
2013-01-17 06:04:00,29.0,22.7,29.99,NE,45,1.0,24.0,77,0.00,,,-99.99,Weather View 32 v60,2013-01-17 11:04:00,
2013-01-17 06:09:00,29.0,22.7,29.99,NE,45,1.0,24.0,77,0.00,,,-99.99,Weather View 32 v60,2013-01-17 11:09:00,
2013-01-17 06:10:00,28.0,21.4,30.01,East,90,4.0,9.0,76,0.00,,,-99.99,Weather View 32 v60,2013-01-17 11:10:00,
2013-01-17 06:15:00,28.0,21.7,30.01,NE,45,4.0,9.0,77,0.00,,,-99.99,Weather View 32 v60,2013-01-17 11:15:00,
2013-01-17 06:20:00,28.0,22.0,30.01,ENE,67,0.0,9.0,78,0.00,,,-99.99,Weather View 32 v60,2013-01-17 11:20:00,
2013-01-17 06:24:00,29.0,21.8,29.99,East,90,5.0,24.0,74,0.00,,,-99.99,Weather View 32 v60,2013-01-17 11:24:00,
2013-01-17 06:25:00,29.0,23.6,30.02,NNW,337,2.0,8.0,80,0.00,,,-99.99,Weather View 32 v60,2013-01-17 11:25:00,
2013-01-17 06:29:00,29.0,22.1,30.00,NE,45,6.0,24.0,75,0.00,,,-99.99,Weather View 32 v60,2013-01-17 11:29:00,
2013-01-17 06:30:00,29.0,24.8,30.02,NW,315,14.0,14.0,84,0.00,,,-99.99,Weather View 32 v60,2013-01-17 11:30:00,
2013-01-17 06:35:00,30.0,24.3,30.02,NW,315,21.0,21.0,79,0.00,,,-99.99,Weather View 32 v60,2013-01-17 11:35:00,
2013-01-17 06:40:00,30.0,24.6,30.02,East,90,7.0,21.0,80,0.00,,,-99.99,Weather View 32 v60,2013-01-17 11:40:00,
2013-01-17 06:45:00,30.0,25.2,30.03,NW,315,13.0,24.0,82,0.00,,,-99.99,Weather View 32 v60,2013-01-17 11:45:00,
2013-01-17 07:00:00,30.0,25.5,30.03,NW,315,20.0,34.0,83,0.00,,,-99.99,Weather View 32 v60,2013-01-17 12:00:00,
2013-01-17 07:04:00,28.0,21.7,30.01,NE,45,0.0,10.0,77,0.00,,,-99.99,Weather View 32 v60,2013-01-17 12:04:00,
2013-01-17 07:05:00,30.0,24.9,30.03,NW,315,16.0,34.0,81,0.00,,,-99.99,Weather View 32 v60,2013-01-17 12:05:00,
2013-01-17 07:09:00,28.0,21.7,30.01,NE,45,0.0,9.0,77,0.00,,,-99.99,Weather View 32 v60,2013-01-17 12:09:00,
2013-01-17 07:10:00,30.0,24.0,30.03,SW,225,6.0,35.0,78,0.00,,,-99.99,Weather View 32 v60,2013-01-17 12:10:00,
2013-01-17 07:15:00,30.0,24.0,30.03,WNW,292,8.0,41.0,78,0.00,,,-99.99,Weather View 32 v60,2013-01-17 12:15:00,
2013-01-17 07:20:00,29.0,23.9,30.03,NW,315,20.0,41.0,81,0.00,,,-99.99,Weather View 32 v60,2013-01-17 12:20:00,
2013-01-17 07:25:00,29.0,23.0,30.03,NW,315,12.0,41.0,78,0.00,,,-99.99,Weather View 32 v60,2013-01-17 12:25:00,
2013-01-17 07:30:00,29.0,23.3,30.03,NW,315,24.0,41.0,79,0.00,,,-99.99,Weather View 32 v60,2013-01-17 12:30:00,
2013-01-17 07:40:00,29.0,23.0,30.05,NNE,22,14.0,41.0,78,0.00,,,-99.99,Weather View 32 v60,2013-01-17 12:40:00,
2013-01-17 07:45:00,28.0,22.6,30.06,NW,315,23.0,41.0,80,0.00,,,-99.99,Weather View 32 v60,2013-01-17 12:45:00,
2013-01-17 07:50:00,28.0,21.4,30.06,NNW,337,26.0,41.0,76,0.00,,,-99.99,Weather View 32 v60,2013-01-17 12:50:00,
2013-01-17 07:54:00,30.0,24.6,30.03,North,360,11.0,34.0,80,0.00,,,-99.99,Weather View 32 v60,2013-01-17 12:54:00,
2013-01-17 07:55:00,28.0,21.4,30.07,WNW,292,11.0,41.0,76,0.00,,,-99.99,Weather View 32 v60,2013-01-17 12:55:00,
2013-01-17 07:59:00,30.0,25.2,30.03,North,360,5.0,34.0,82,0.00,,,-99.99,Weather View 32 v60,2013-01-17 12:59:00,
2013-01-17 08:00:00,28.0,22.0,30.07,NW,315,26.0,41.0,78,0.00,,,-99.99,Weather View 32 v60,2013-01-17 13:00:00,
2013-01-17 08:15:00,27.0,19.5,30.07,NW,315,14.0,31.0,73,0.00,,,-99.99,Weather View 32 v60,2013-01-17 13:15:00,
2013-01-17 08:25:00,27.0,20.1,30.07,WNW,292,8.0,31.0,75,0.00,,,-99.99,Weather View 32 v60,2013-01-17 13:25:00,
2013-01-17 08:35:00,27.0,20.1,30.08,NNW,337,14.0,31.0,75,0.00,,,-99.99,Weather View 32 v60,2013-01-17 13:35:00,
2013-01-17 08:39:00,29.0,24.2,30.05,NW,315,25.0,41.0,82,0.00,,,-99.99,Weather View 32 v60,2013-01-17 13:39:00,
2013-01-17 08:40:00,27.0,20.1,30.08,NNW,337,12.0,31.0,75,0.00,,,-99.99,Weather View 32 v60,2013-01-17 13:40:00,
2013-01-17 08:45:00,26.0,19.8,30.09,NW,315,19.0,31.0,77,0.00,,,-99.99,Weather View 32 v60,2013-01-17 13:45:00,
2013-01-17 08:50:00,26.0,20.4,30.09,NW,315,19.0,31.0,79,0.00,,,-99.99,Weather View 32 v60,2013-01-17 13:50:00,
2013-01-17 08:55:00,26.0,19.2,30.09,NNW,337,7.0,35.0,75,0.00,,,-99.99,Weather View 32 v60,2013-01-17 13:55:00,
2013-01-17 09:00:00,26.0,20.1,30.09,NW,315,28.0,40.0,78,0.00,,,-99.99,Weather View 32 v60,2013-01-17 14:00:00,
2013-01-17 09:05:00,26.0,19.2,30.09,WNW,292,6.0,41.0,75,0.00,,,-99.99,Weather View 32 v60,2013-01-17 14:05:00,
2013-01-17 09:09:00,27.0,19.5,30.06,NNW,337,11.0,41.0,73,0.00,,,-99.99,Weather View 32 v60,2013-01-17 14:09:00,
2013-01-17 09:10:00,26.0,18.2,30.09,North,360,10.0,41.0,72,0.00,,,-99.99,Weather View 32 v60,2013-01-17 14:10:00,
2013-01-17 09:14:00,27.0,20.8,30.06,NW,315,28.0,41.0,77,0.00,,,-99.99,Weather View 32 v60,2013-01-17 14:14:00,
2013-01-17 09:15:00,26.0,18.9,30.09,NNW,337,19.0,41.0,74,0.00,,,-99.99,Weather View 32 v60,2013-01-17 14:15:00,
2013-01-17 09:20:00,26.0,18.9,30.09,NNW,337,11.0,41.0,74,0.00,,,-99.99,Weather View 32 v60,2013-01-17 14:20:00,
2013-01-17 09:24:00,27.0,20.1,30.07,North,360,10.0,31.0,75,0.00,,,-99.99,Weather View 32 v60,2013-01-17 14:24:00,
2013-01-17 09:25:00,26.0,19.8,30.09,NW,315,8.0,41.0,77,0.00,,,-99.99,Weather View 32 v60,2013-01-17 14:25:00,
2013-01-17 09:30:00,26.0,18.2,30.09,NNW,337,15.0,41.0,72,0.00,,,-99.99,Weather View 32 v60,2013-01-17 14:30:00,
2013-01-17 09:34:00,27.0,19.5,30.07,West,270,19.0,31.0,73,0.00,,,-99.99,Weather View 32 v60,2013-01-17 14:34:00,
2013-01-17 09:35:00,26.0,19.8,30.09,NW,315,22.0,41.0,77,0.00,,,-99.99,Weather View 32 v60,2013-01-17 14:35:00,
2013-01-17 09:40:00,26.0,20.4,30.09,NW,315,24.0,41.0,79,0.00,,,-99.99,Weather View 32 v60,2013-01-17 14:40:00,
2013-01-17 09:45:00,26.0,19.5,30.10,West,270,8.0,41.0,76,0.00,,,-99.99,Weather View 32 v60,2013-01-17 14:45:00,
2013-01-17 09:50:00,25.0,18.5,30.10,NNW,337,22.0,41.0,76,0.00,,,-99.99,Weather View 32 v60,2013-01-17 14:50:00,
2013-01-17 09:55:00,25.0,18.8,30.10,NNW,337,21.0,41.0,77,0.00,,,-99.99,Weather View 32 v60,2013-01-17 14:55:00,
2013-01-17 10:05:00,26.0,20.7,30.10,NW,315,27.0,37.0,80,0.00,,,-99.99,Weather View 32 v60,2013-01-17 15:05:00,
2013-01-17 10:10:00,26.0,21.0,30.10,NW,315,18.0,37.0,81,0.00,,,-99.99,Weather View 32 v60,2013-01-17 15:10:00,
2013-01-17 10:20:00,25.0,20.6,30.10,West,270,13.0,48.0,83,0.00,,,-99.99,Weather View 32 v60,2013-01-17 15:20:00,
2013-01-17 10:25:00,25.0,18.5,30.10,North,360,36.0,48.0,76,0.00,,,-99.99,Weather View 32 v60,2013-01-17 15:25:00,
2013-01-17 10:30:00,25.0,19.4,30.10,NW,315,15.0,48.0,79,0.00,,,-99.99,Weather View 32 v60,2013-01-17 15:30:00,
2013-01-17 10:35:00,25.0,19.1,30.11,NNW,337,16.0,48.0,78,0.00,,,-99.99,Weather View 32 v60,2013-01-17 15:35:00,
2013-01-17 10:40:00,26.0,19.8,30.09,NW,315,22.0,41.0,77,0.00,,,-99.99,Weather View 32 v60,2013-01-17 15:40:00,
2013-01-17 10:55:00,24.0,17.5,30.10,North,360,24.0,48.0,76,0.00,,,-99.99,Weather View 32 v60,2013-01-17 15:55:00,
2013-01-17 11:00:00,24.0,18.7,30.10,NNW,337,16.0,48.0,80,0.00,,,-99.99,Weather View 32 v60,2013-01-17 16:00:00,
2013-01-17 11:04:00,25.0,19.7,30.10,NW,315,14.0,41.0,80,0.00,,,-99.99,Weather View 32 v60,2013-01-17 16:04:00,
2013-01-17 11:19:00,25.0,20.6,30.10,North,360,18.0,38.0,83,0.00,,,-99.99,Weather View 32 v60,2013-01-17 16:19:00,
2013-01-17 11:35:00,24.0,17.8,30.10,NW,315,9.0,40.0,77,0.00,,,-99.99,Weather View 32 v60,2013-01-17 16:35:00,
2013-01-17 11:41:00,25.0,19.1,30.11,NNW,337,16.0,48.0,78,0.00,,,-99.99,Weather View 32 v60,2013-01-17 16:41:00,
2013-01-17 11:49:00,25.0,20.0,30.10,NW,315,22.0,48.0,81,0.00,,,-99.99,Weather View 32 v60,2013-01-17 16:49:00,
2013-01-17 11:50:00,24.0,19.0,30.11,North,360,10.0,45.0,81,0.00,,,-99.99,Weather View 32 v60,2013-01-17 16:50:00,
2013-01-17 11:54:00,25.0,19.4,30.10,North,360,17.0,48.0,79,0.00,,,-99.99,Weather View 32 v60,2013-01-17 16:54:00,
2013-01-17 11:55:00,24.0,18.4,30.11,WNW,292,9.0,45.0,79,0.00,,,-99.99,Weather View 32 v60,2013-01-17 16:55:00,
2013-01-17 12:05:00,24.0,19.0,30.11,WNW,292,20.0,45.0,81,0.00,,,-99.99,Weather View 32 v60,2013-01-17 17:05:00,
2013-01-17 12:09:00,25.0,19.1,30.11,North,360,16.0,48.0,78,0.00,,,-99.99,Weather View 32 v60,2013-01-17 17:09:00,
2013-01-17 12:14:00,25.0,19.1,30.11,NW,315,9.0,48.0,78,0.00,,,-99.99,Weather View 32 v60,2013-01-17 17:14:00,
2013-01-17 12:19:00,25.0,19.7,30.11,NW,315,8.0,48.0,80,0.00,,,-99.99,Weather View 32 v60,2013-01-17 17:19:00,
2013-01-17 12:20:00,23.0,18.3,30.11,NE,45,22.0,45.0,82,0.00,,,-99.99,Weather View 32 v60,2013-01-17 17:20:00,
2013-01-17 12:24:00,25.0,20.0,30.11,West,270,8.0,46.0,81,0.00,,,-99.99,Weather View 32 v60,2013-01-17 17:24:00,
2013-01-17 12:29:00,24.0,18.1,30.10,NW,315,19.0,43.0,78,0.00,,,-99.99,Weather View 32 v60,2013-01-17 17:29:00,
2013-01-17 12:30:00,23.0,17.8,30.09,NW,315,18.0,45.0,80,0.00,,,-99.99,Weather View 32 v60,2013-01-17 17:30:00,
2013-01-17 12:34:00,25.0,20.0,30.10,North,360,8.0,40.0,81,0.00,,,-99.99,Weather View 32 v60,2013-01-17 17:34:00,
2013-01-17 12:35:00,23.0,18.3,30.11,North,360,12.0,45.0,82,0.00,,,-99.99,Weather View 32 v60,2013-01-17 17:35:00,
2013-01-17 12:39:00,24.0,17.8,30.10,NW,315,9.0,40.0,77,0.00,,,-99.99,Weather View 32 v60,2013-01-17 17:39:00,
2013-01-17 12:40:00,23.0,18.0,30.11,NW,315,19.0,45.0,81,0.00,,,-99.99,Weather View 32 v60,2013-01-17 17:40:00,
2013-01-17 12:44:00,24.0,19.3,30.10,NW,315,9.0,40.0,82,0.00,,,-99.99,Weather View 32 v60,2013-01-17 17:44:00,
2013-01-17 12:45:00,23.0,18.3,30.11,NW,315,33.0,46.0,82,0.00,,,-99.99,Weather View 32 v60,2013-01-17 17:45:00,
2013-01-17 12:49:00,24.0,18.1,30.11,North,360,20.0,40.0,78,0.00,,,-99.99,Weather View 32 v60,2013-01-17 17:49:00,
2013-01-17 12:50:00,23.0,17.5,30.11,NW,315,20.0,46.0,79,0.00,,,-99.99,Weather View 32 v60,2013-01-17 17:50:00,
2013-01-17 13:00:00,23.0,18.3,30.12,NW,315,16.0,46.0,82,0.00,,,-99.99,Weather View 32 v60,2013-01-17 18:00:00,
2013-01-17 13:04:00,24.0,19.3,30.11,North,360,8.0,45.0,82,0.00,,,-99.99,Weather View 32 v60,2013-01-17 18:04:00,
2013-01-17 13:05:00,23.0,18.0,30.11,NW,315,15.0,46.0,81,0.00,,,-99.99,Weather View 32 v60,2013-01-17 18:05:00,
2013-01-17 13:14:00,23.0,17.2,30.11,NNW,337,20.0,45.0,78,0.00,,,-99.99,Weather View 32 v60,2013-01-17 18:14:00,
2013-01-17 13:15:00,22.0,17.1,30.12,NNW,337,25.0,47.0,81,0.00,,,-99.99,Weather View 32 v60,2013-01-17 18:15:00,
2013-01-17 13:19:00,23.0,17.8,30.11,North,360,25.0,45.0,80,0.00,,,-99.99,Weather View 32 v60,2013-01-17 18:19:00,
2013-01-17 13:20:00,22.0,16.8,30.12,NNW,337,27.0,47.0,80,0.00,,,-99.99,Weather View 32 v60,2013-01-17 18:20:00,
2013-01-17 13:29:00,23.0,16.9,30.09,North,360,16.0,45.0,77,0.00,,,-99.99,Weather View 32 v60,2013-01-17 18:29:00,
2013-01-17 13:35:00,22.0,16.2,30.11,NNW,337,22.0,53.0,78,0.00,,,-99.99,Weather View 32 v60,2013-01-17 18:35:00,
2013-01-17 13:39:00,23.0,18.3,30.11,North,360,12.0,45.0,82,0.00,,,-99.99,Weather View 32 v60,2013-01-17 18:39:00,
2013-01-17 13:55:00,22.0,15.3,30.12,NW,315,18.0,60.0,75,0.00,,,-99.99,Weather View 32 v60,2013-01-17 18:55:00,
2013-01-17 13:59:00,23.0,18.3,30.12,North,360,15.0,46.0,82,0.00,,,-99.99,Weather View 32 v60,2013-01-17 18:59:00,
2013-01-17 14:00:00,22.0,15.6,30.12,North,360,19.0,60.0,76,0.00,,,-99.99,Weather View 32 v60,2013-01-17 19:00:00,
2013-01-17 14:10:00,22.0,16.5,30.13,WNW,292,4.0,60.0,79,0.00,,,-99.99,Weather View 32 v60,2013-01-17 19:10:00,
2013-01-17 14:14:00,22.0,16.2,30.11,NNE,22,10.0,46.0,78,0.00,,,-99.99,Weather View 32 v60,2013-01-17 19:14:00,
2013-01-17 14:20:00,21.0,14.0,30.12,NNW,337,22.0,66.0,74,0.00,,,-99.99,Weather View 32 v60,2013-01-17 19:20:00,
2013-01-17 14:29:00,22.0,16.5,30.12,NW,315,14.0,47.0,79,0.00,,,-99.99,Weather View 32 v60,2013-01-17 19:29:00,
2013-01-17 14:30:00,21.0,15.5,30.13,WNW,292,31.0,66.0,79,0.00,,,-99.99,Weather View 32 v60,2013-01-17 19:30:00,
2013-01-17 14:34:00,22.0,16.5,30.12,WNW,292,19.0,53.0,79,0.00,,,-99.99,Weather View 32 v60,2013-01-17 19:34:00,
2013-01-17 14:35:00,21.0,16.1,30.14,North,360,29.0,66.0,81,0.00,,,-99.99,Weather View 32 v60,2013-01-17 19:35:00,
2013-01-17 14:40:00,21.0,15.8,30.14,NNW,337,13.0,66.0,80,0.00,,,-99.99,Weather View 32 v60,2013-01-17 19:40:00,
2013-01-17 14:44:00,22.0,16.2,30.11,West,270,22.0,53.0,78,0.00,,,-99.99,Weather View 32 v60,2013-01-17 19:44:00,
2013-01-17 14:45:00,21.0,14.6,30.13,NW,315,20.0,66.0,76,0.00,,,-99.99,Weather View 32 v60,2013-01-17 19:45:00,
2013-01-17 14:49:00,22.0,17.4,30.12,NW,315,7.0,56.0,82,0.00,,,-99.99,Weather View 32 v60,2013-01-17 19:49:00,
2013-01-17 14:50:00,21.0,15.5,30.13,North,360,32.0,66.0,79,0.00,,,-99.99,Weather View 32 v60,2013-01-17 19:50:00,
2013-01-17 14:54:00,22.0,16.5,30.12,NW,315,13.0,59.0,79,0.00,,,-99.99,Weather View 32 v60,2013-01-17 19:54:00,
2013-01-17 14:55:00,21.0,14.3,30.13,North,360,23.0,66.0,75,0.00,,,-99.99,Weather View 32 v60,2013-01-17 19:55:00,
2013-01-17 15:00:00,21.0,15.8,30.13,North,360,12.0,66.0,80,0.00,,,-99.99,Weather View 32 v60,2013-01-17 20:00:00,
2013-01-17 15:05:00,21.0,15.5,30.14,WNW,292,13.0,66.0,79,0.00,,,-99.99,Weather View 32 v60,2013-01-17 20:05:00,
2013-01-17 15:09:00,22.0,16.5,30.13,NW,315,21.0,60.0,79,0.00,,,-99.99,Weather View 32 v60,2013-01-17 20:09:00,
2013-01-17 15:10:00,21.0,14.9,30.14,West,270,10.0,66.0,77,0.00,,,-99.99,Weather View 32 v60,2013-01-17 20:10:00,
2013-01-17 15:19:00,22.0,16.5,30.12,NW,315,8.0,66.0,79,0.00,,,-99.99,Weather View 32 v60,2013-01-17 20:19:00,
2013-01-17 15:20:00,21.0,14.3,30.13,North,360,25.0,62.0,75,0.00,,,-99.99,Weather View 32 v60,2013-01-17 20:20:00,
2013-01-17 15:25:00,22.0,15.9,30.14,NE,45,11.0,62.0,77,0.00,,,-99.99,Weather View 32 v60,2013-01-17 20:25:00,
2013-01-17 15:29:00,21.0,14.9,30.13,NNW,337,22.0,66.0,77,0.00,,,-99.99,Weather View 32 v60,2013-01-17 20:29:00,
2013-01-17 15:30:00,21.0,14.0,30.14,NW,315,12.0,62.0,74,0.00,,,-99.99,Weather View 32 v60,2013-01-17 20:30:00,
2013-01-17 15:39:00,21.0,16.1,30.14,North,360,29.0,66.0,81,0.00,,,-99.99,Weather View 32 v60,2013-01-17 20:39:00,
2013-01-17 15:40:00,21.0,14.6,30.13,WNW,292,16.0,62.0,76,0.00,,,-99.99,Weather View 32 v60,2013-01-17 20:40:00,
2013-01-17 15:50:00,21.0,14.3,30.13,North,360,10.0,62.0,75,0.00,,,-99.99,Weather View 32 v60,2013-01-17 20:50:00,
2013-01-17 15:55:00,21.0,14.9,30.15,West,270,9.0,62.0,77,0.00,,,-99.99,Weather View 32 v60,2013-01-17 20:55:00,
2013-01-17 16:00:00,21.0,14.9,30.15,North,360,19.0,62.0,77,0.00,,,-99.99,Weather View 32 v60,2013-01-17 21:00:00,
2013-01-17 16:05:00,21.0,15.5,30.15,NNW,337,26.0,52.0,79,0.00,,,-99.99,Weather View 32 v60,2013-01-17 21:05:00,
2013-01-17 16:10:00,21.0,14.6,30.15,North,360,27.0,52.0,76,0.00,,,-99.99,Weather View 32 v60,2013-01-17 21:10:00,
2013-01-17 16:19:00,21.0,14.0,30.13,WSW,247,10.0,66.0,74,0.00,,,-99.99,Weather View 32 v60,2013-01-17 21:19:00,
2013-01-17 16:20:00,22.0,14.7,30.15,North,360,8.0,51.0,73,0.00,,,-99.99,Weather View 32 v60,2013-01-17 21:20:00,
2013-01-17 16:25:00,22.0,16.5,30.14,North,360,8.0,43.0,79,0.00,,,-99.99,Weather View 32 v60,2013-01-17 21:25:00,
2013-01-17 16:39:00,21.0,13.7,30.13,North,360,19.0,62.0,73,0.00,,,-99.99,Weather View 32 v60,2013-01-17 21:39:00,
2013-01-17 16:40:00,22.0,16.8,30.15,NNE,22,11.0,43.0,80,0.00,,,-99.99,Weather View 32 v60,2013-01-17 21:40:00,
2013-01-17 16:45:00,22.0,16.8,30.16,North,360,12.0,43.0,80,0.00,,,-99.99,Weather View 32 v60,2013-01-17 21:45:00,
2013-01-17 16:49:00,21.0,13.7,30.13,NE,45,19.0,62.0,73,0.00,,,-99.99,Weather View 32 v60,2013-01-17 21:49:00,
2013-01-17 16:50:00,22.0,17.1,30.16,North,360,24.0,38.0,81,0.00,,,-99.99,Weather View 32 v60,2013-01-17 21:50:00,
2013-01-17 16:55:00,22.0,17.4,30.16,NW,315,18.0,43.0,82,0.00,,,-99.99,Weather View 32 v60,2013-01-17 21:55:00,
2013-01-17 17:05:00,22.0,17.6,30.16,NW,315,9.0,43.0,83,0.00,,,-99.99,Weather View 32 v60,2013-01-17 22:05:00,
2013-01-17 17:19:00,21.0,14.9,30.15,North,360,13.0,52.0,77,0.00,,,-99.99,Weather View 32 v60,2013-01-17 22:19:00,
2013-01-17 17:25:00,23.0,15.6,30.17,North,360,6.0,43.0,73,0.00,,,-99.99,Weather View 32 v60,2013-01-17 22:25:00,
2013-01-17 17:34:00,22.0,15.3,30.14,NW,315,8.0,43.0,75,0.00,,,-99.99,Weather View 32 v60,2013-01-17 22:34:00,
2013-01-17 17:44:00,22.0,16.8,30.15,NNE,22,11.0,43.0,80,0.00,,,-99.99,Weather View 32 v60,2013-01-17 22:44:00,
2013-01-17 17:45:00,23.0,16.0,30.16,NNW,337,16.0,43.0,74,0.00,,,-99.99,Weather View 32 v60,2013-01-17 22:45:00,
2013-01-17 18:04:00,22.0,16.8,30.16,NW,315,29.0,43.0,80,0.00,,,-99.99,Weather View 32 v60,2013-01-17 23:04:00,
2013-01-17 18:10:00,23.0,16.6,30.17,NNE,22,10.0,48.0,76,0.00,,,-99.99,Weather View 32 v60,2013-01-17 23:10:00,
2013-01-17 18:14:00,23.0,17.8,30.16,NNW,337,28.0,43.0,80,0.00,,,-99.99,Weather View 32 v60,2013-01-17 23:14:00,
2013-01-17 18:19:00,23.0,16.6,30.15,East,90,6.0,43.0,76,0.00,,,-99.99,Weather View 32 v60,2013-01-17 23:19:00,
2013-01-17 18:20:00,23.0,15.6,30.17,NE,45,20.0,48.0,73,0.00,,,-99.99,Weather View 32 v60,2013-01-17 23:20:00,
2013-01-17 18:24:00,23.0,18.3,30.15,NW,315,29.0,43.0,82,0.00,,,-99.99,Weather View 32 v60,2013-01-17 23:24:00,
2013-01-17 18:34:00,23.0,17.2,30.17,NNW,337,18.0,43.0,78,0.00,,,-99.99,Weather View 32 v60,2013-01-17 23:34:00,
2013-01-17 18:35:00,23.0,15.6,30.18,North,360,17.0,48.0,73,0.00,,,-99.99,Weather View 32 v60,2013-01-17 23:35:00,
2013-01-17 18:39:00,23.0,16.6,30.15,NNW,337,17.0,43.0,76,0.00,,,-99.99,Weather View 32 v60,2013-01-17 23:39:00,
2013-01-17 18:40:00,23.0,16.3,30.18,NW,315,10.0,48.0,75,0.00,,,-99.99,Weather View 32 v60,2013-01-17 23:40:00,
2013-01-17 18:44:00,23.0,14.7,30.15,NNW,337,16.0,43.0,70,0.00,,,-99.99,Weather View 32 v60,2013-01-17 23:44:00,
2013-01-17 18:45:00,23.0,16.6,30.18,NNW,337,28.0,48.0,76,0.00,,,-99.99,Weather View 32 v60,2013-01-17 23:45:00,
2013-01-17 18:54:00,23.0,14.3,30.16,North,360,26.0,43.0,69,0.00,,,-99.99,Weather View 32 v60,2013-01-17 23:54:00,
2013-01-17 18:55:00,23.0,13.3,30.17,North,360,20.0,39.0,66,0.00,,,-99.99,Weather View 32 v60,2013-01-17 23:55:00,
2013-01-17 18:59:00,23.0,16.0,30.16,North,360,35.0,48.0,74,0.00,,,-99.99,Weather View 32 v60,2013-01-17 23:59:00,
2013-01-17 19:05:00,24.0,17.2,30.19,NNE,22,9.0,40.0,75,0.00,,,-99.99,Weather View 32 v60,2013-01-18 00:05:00,
2013-01-17 19:09:00,23.0,16.6,30.17,NNE,22,10.0,48.0,76,0.00,,,-99.99,Weather View 32 v60,2013-01-18 00:09:00,
2013-01-17 19:19:00,23.0,16.9,30.17,North,360,19.0,48.0,77,0.00,,,-99.99,Weather View 32 v60,2013-01-18 00:19:00,
2013-01-17 19:29:00,23.0,16.3,30.17,NW,315,12.0,48.0,75,0.00,,,-99.99,Weather View 32 v60,2013-01-18 00:29:00,
2013-01-17 19:30:00,24.0,16.6,30.17,NNW,337,22.0,40.0,73,0.00,,,-99.99,Weather View 32 v60,2013-01-18 00:30:00,
2013-01-17 19:34:00,23.0,15.6,30.17,West,270,19.0,48.0,73,0.00,,,-99.99,Weather View 32 v60,2013-01-18 00:34:00,
2013-01-17 19:35:00,24.0,17.5,30.18,WNW,292,9.0,40.0,76,0.00,,,-99.99,Weather View 32 v60,2013-01-18 00:35:00,
2013-01-17 19:46:00,23.0,16.3,30.18,NW,315,10.0,48.0,75,0.00,,,-99.99,Weather View 32 v60,2013-01-18 00:46:00,
2013-01-17 19:54:00,23.0,14.7,30.18,NW,315,14.0,48.0,70,0.00,,,-99.99,Weather View 32 v60,2013-01-18 00:54:00,
2013-01-17 20:04:00,24.0,15.0,30.17,NW,315,28.0,40.0,68,0.00,,,-99.99,Weather View 32 v60,2013-01-18 01:04:00,
2013-01-17 20:10:00,23.0,15.6,30.19,NW,315,7.0,49.0,73,0.00,,,-99.99,Weather View 32 v60,2013-01-18 01:10:00,
2013-01-17 20:14:00,24.0,16.9,30.19,NW,315,9.0,40.0,74,0.00,,,-99.99,Weather View 32 v60,2013-01-18 01:14:00,
2013-01-17 20:15:00,23.0,15.0,30.18,North,360,34.0,49.0,71,0.00,,,-99.99,Weather View 32 v60,2013-01-18 01:15:00,
2013-01-17 20:19:00,24.0,17.5,30.18,North,360,9.0,40.0,76,0.00,,,-99.99,Weather View 32 v60,2013-01-18 01:19:00,
2013-01-17 20:24:00,23.0,15.3,30.18,NW,315,11.0,40.0,72,0.00,,,-99.99,Weather View 32 v60,2013-01-18 01:24:00,
2013-01-17 20:29:00,23.0,15.0,30.17,NW,315,24.0,40.0,71,0.00,,,-99.99,Weather View 32 v60,2013-01-18 01:29:00,
2013-01-17 20:35:00,23.0,15.0,30.19,North,360,28.0,49.0,71,0.00,,,-99.99,Weather View 32 v60,2013-01-18 01:35:00,
2013-01-17 20:40:00,23.0,15.3,30.19,NNW,337,20.0,49.0,72,0.00,,,-99.99,Weather View 32 v60,2013-01-18 01:40:00,
2013-01-17 20:44:00,23.0,15.6,30.18,NW,315,19.0,40.0,73,0.00,,,-99.99,Weather View 32 v60,2013-01-18 01:44:00,
2013-01-17 20:45:00,23.0,14.7,30.19,NW,315,23.0,49.0,70,0.00,,,-99.99,Weather View 32 v60,2013-01-18 01:45:00,
2013-01-17 20:50:00,23.0,14.0,30.19,NW,315,27.0,49.0,68,0.00,,,-99.99,Weather View 32 v60,2013-01-18 01:50:00,
2013-01-17 20:54:00,23.0,14.7,30.17,North,360,29.0,43.0,70,0.00,,,-99.99,Weather View 32 v60,2013-01-18 01:54:00,
2013-01-17 20:55:00,23.0,16.6,30.18,NNW,337,27.0,49.0,76,0.00,,,-99.99,Weather View 32 v60,2013-01-18 01:55:00,
2013-01-17 20:59:00,23.0,15.6,30.18,North,360,31.0,43.0,73,0.00,,,-99.99,Weather View 32 v60,2013-01-18 01:59:00,
2013-01-17 21:00:00,23.0,16.0,30.18,NNW,337,18.0,49.0,74,0.00,,,-99.99,Weather View 32 v60,2013-01-18 02:00:00,
2013-01-17 21:04:00,23.0,15.0,30.18,North,360,29.0,48.0,71,0.00,,,-99.99,Weather View 32 v60,2013-01-18 02:04:00,
2013-01-17 21:09:00,23.0,15.6,30.19,North,360,21.0,49.0,73,0.00,,,-99.99,Weather View 32 v60,2013-01-18 02:09:00,
2013-01-17 21:20:00,23.0,17.2,30.18,North,360,26.0,42.0,78,0.00,,,-99.99,Weather View 32 v60,2013-01-18 02:20:00,
2013-01-17 21:24:00,23.0,16.0,30.18,NNW,337,28.0,49.0,74,0.00,,,-99.99,Weather View 32 v60,2013-01-18 02:24:00,
2013-01-17 21:25:00,23.0,16.0,30.20,North,360,15.0,42.0,74,0.00,,,-99.99,Weather View 32 v60,2013-01-18 02:25:00,
2013-01-17 21:29:00,23.0,16.3,30.19,North,360,13.0,49.0,75,0.00,,,-99.99,Weather View 32 v60,2013-01-18 02:29:00,
2013-01-17 21:30:00,23.0,15.6,30.20,NNW,337,10.0,42.0,73,0.00,,,-99.99,Weather View 32 v60,2013-01-18 02:30:00,
2013-01-17 21:34:00,23.0,14.3,30.19,NW,315,22.0,49.0,69,0.00,,,-99.99,Weather View 32 v60,2013-01-18 02:34:00,
2013-01-17 21:40:00,22.0,15.3,30.19,NW,315,14.0,36.0,75,0.00,,,-99.99,Weather View 32 v60,2013-01-18 02:40:00,
2013-01-17 21:44:00,23.0,15.3,30.19,NNW,337,20.0,49.0,72,0.00,,,-99.99,Weather View 32 v60,2013-01-18 02:44:00,
2013-01-17 21:45:00,22.0,13.7,30.19,North,360,18.0,36.0,70,0.00,,,-99.99,Weather View 32 v60,2013-01-18 02:45:00,
2013-01-17 21:55:00,22.0,14.7,30.19,NNW,337,23.0,36.0,73,0.00,,,-99.99,Weather View 32 v60,2013-01-18 02:55:00,
2013-01-17 22:05:00,22.0,15.9,30.19,North,360,19.0,36.0,77,0.00,,,-99.99,Weather View 32 v60,2013-01-18 03:05:00,
2013-01-17 22:09:00,23.0,15.6,30.19,North,360,23.0,45.0,73,0.00,,,-99.99,Weather View 32 v60,2013-01-18 03:09:00,
2013-01-17 22:14:00,23.0,16.6,30.19,North,360,30.0,42.0,76,0.00,,,-99.99,Weather View 32 v60,2013-01-18 03:14:00,
2013-01-17 22:19:00,22.0,14.7,30.18,NW,315,10.0,42.0,73,0.00,,,-99.99,Weather View 32 v60,2013-01-18 03:19:00,
2013-01-17 22:30:00,22.0,15.0,30.20,NNE,22,14.0,36.0,74,0.00,,,-99.99,Weather View 32 v60,2013-01-18 03:30:00,
2013-01-17 22:39:00,22.0,14.4,30.19,North,360,15.0,36.0,72,0.00,,,-99.99,Weather View 32 v60,2013-01-18 03:39:00,
2013-01-17 22:40:00,22.0,15.6,30.20,NW,315,10.0,34.0,76,0.00,,,-99.99,Weather View 32 v60,2013-01-18 03:40:00,
2013-01-17 22:50:00,22.0,15.9,30.20,NW,315,21.0,34.0,77,0.00,,,-99.99,Weather View 32 v60,2013-01-18 03:50:00,
2013-01-17 22:54:00,22.0,14.7,30.19,NNE,22,19.0,36.0,73,0.00,,,-99.99,Weather View 32 v60,2013-01-18 03:54:00,
2013-01-17 23:00:00,22.0,16.8,30.21,NW,315,9.0,34.0,80,0.00,,,-99.99,Weather View 32 v60,2013-01-18 04:00:00,
2013-01-17 23:04:00,22.0,15.9,30.19,NNE,22,19.0,36.0,77,0.00,,,-99.99,Weather View 32 v60,2013-01-18 04:04:00,
2013-01-17 23:05:00,22.0,15.9,30.21,North,360,15.0,34.0,77,0.00,,,-99.99,Weather View 32 v60,2013-01-18 04:05:00,
2013-01-17 23:10:00,22.0,15.9,30.21,NW,315,12.0,33.0,77,0.00,,,-99.99,Weather View 32 v60,2013-01-18 04:10:00,
2013-01-17 23:14:00,22.0,15.3,30.19,NW,315,20.0,36.0,75,0.00,,,-99.99,Weather View 32 v60,2013-01-18 04:14:00,
2013-01-17 23:15:00,22.0,15.9,30.21,NNW,337,19.0,33.0,77,0.00,,,-99.99,Weather View 32 v60,2013-01-18 04:15:00,
2013-01-17 23:19:00,22.0,15.6,30.21,North,360,12.0,36.0,76,0.00,,,-99.99,Weather View 32 v60,2013-01-18 04:19:00,
2013-01-17 23:20:00,22.0,15.0,30.21,North,360,19.0,33.0,74,0.00,,,-99.99,Weather View 32 v60,2013-01-18 04:20:00,
2013-01-17 23:24:00,22.0,15.6,30.21,North,360,17.0,36.0,76,0.00,,,-99.99,Weather View 32 v60,2013-01-18 04:24:00,
2013-01-17 23:25:00,22.0,16.5,30.21,North,360,12.0,33.0,79,0.00,,,-99.99,Weather View 32 v60,2013-01-18 04:25:00,
2013-01-17 23:29:00,22.0,14.7,30.20,North,360,11.0,36.0,73,0.00,,,-99.99,Weather View 32 v60,2013-01-18 04:29:00,
2013-01-17 23:30:00,22.0,15.0,30.21,North,360,12.0,33.0,74,0.00,,,-99.99,Weather View 32 v60,2013-01-18 04:30:00,
2013-01-17 23:35:00,22.0,15.6,30.20,NNW,337,19.0,33.0,76,0.00,,,-99.99,Weather View 32 v60,2013-01-18 04:35:00,
2013-01-17 23:39:00,22.0,14.7,30.20,North,360,3.0,34.0,73,0.00,,,-99.99,Weather View 32 v60,2013-01-18 04:39:00,
2013-01-17 23:40:00,22.0,16.8,30.20,North,360,11.0,33.0,80,0.00,,,-99.99,Weather View 32 v60,2013-01-18 04:40:00,
2013-01-17 23:44:00,22.0,15.6,30.20,NW,315,10.0,34.0,76,0.00,,,-99.99,Weather View 32 v60,2013-01-18 04:44:00,
2013-01-17 23:45:00,22.0,17.4,30.21,North,360,14.0,33.0,82,0.00,,,-99.99,Weather View 32 v60,2013-01-18 04:45:00,
2013-01-17 23:49:00,22.0,15.9,30.20,NNW,337,19.0,34.0,77,0.00,,,-99.99,Weather View 32 v60,2013-01-18 04:49:00,
2013-01-17 23:50:00,22.0,16.2,30.21,NNE,22,14.0,33.0,78,0.00,,,-99.99,Weather View 32 v60,2013-01-18 04:50:00,
2013-01-17 23:55:00,21.0,15.2,30.21,North,360,17.0,33.0,78,0.00,,,-99.99,Weather View 32 v60,2013-01-18 04:55:00,
2013-01-17 23:59:00,22.0,15.6,30.21,North,360,18.0,34.0,76,0.00,,,-99.99,Weather View 32 v60,2013-01-18 04:59:00,